www.pogodaiklimat.ru

Погода и климат >> Архив погоды >> Россия >> Коми >> Объячево


ПОГОДА в Объячеве

  • Прогноз погоды в Объячеве
  • Монитор погоды в Объячеве

АРХИВ ПОГОДЫ в Объячеве

Время (UTC), дата Ветер
(напр.,м/с)
 
Видим.   Явления Облачность Т
(С)
Тd
(С)
f
(%)
Тe
(С)
Тes
(С)
Комфортность P
(гПа)
Po
(гПа)
Тmin
(С)
Tmax
(С)
R
(мм)
R24
(мм)
S
(см)
09 14.04 СЗ 2 50 км 1/0
[Ci fib]
+2.1 -14.5 28 0 +9 1031.0 1012.1
12 14.04 С 1 50 км ясно +5.1 -15.3 21 +5 +11 1029.6 1011.0
15 14.04 С 2 50 км ясно +3.0 -14.1 27 +1 +1 1028.3 1009.5 +5.4
18 14.04 СЗ 1 20 км ясно -1.0 -14.2 36 -2 -2 1028.0 1009.0
21 14.04 Ю 1 20 км ясно -4.0 -13.3 48 -6 -6 1026.9 1007.7
00 15.04 Ю 2 20 км ясно -3.8 -13.5 47 -7 -7 1025.2 1006.0
03 15.04 ЮЗ 3 50 км 9/0
[Ac As]
-2.2 -10.7 52 -7 -6 1022.5 1003.5 -4.5 29
06 15.04 З 5 2000 м слаб. ливневой снег 10/8 300 м
[Cb cap As op]
+0.5 -2.5 80 -5 -5 1020.2 1001.4
09 15.04 З 4 10 км слаб. ливневой дождь 10/10 300 м
[Cb cap]
+1.4 -0.8 85 -4 -4 1020.0 1001.3
12 15.04 З 3 4000 м слаб. ливневой дождь со снегом 10/8 300 м
[Cb cap As op]
+1.5 -0.2 88 -3 -3 1019.8 1001.1
15 15.04 З 3 20 км в посл. час ливневой дождь 10/8 300 м
[Cb cap As op]
+2.1 +0.3 88 -2 -2 1018.7 1000.1 +2.1 0.6
18 15.04 З 3 20 км в посл. час ливневой дождь 10/8 300 м
[Cb cap Ac As]
+1.9 -0.4 85 -2 -2 1018.0 999.4
21 15.04 СЗ 3 20 км 9/8 300 м
[Cb cap Ac As]
+1.8 -1.4 79 -2 -2 1017.1 998.5
00 16.04 З 2 20 км в посл. час ливневой снег 10/8 300 м
[Cb cap Ac As]
+1.4 -1.2 83 -2 -2 1016.0 997.4 +0.4 0.7 26
03 16.04 СЗ 4 20 км в посл. час ливневой снег 10/8 300 м
[Cb cap Ac As]
+0.7 -0.8 90 -5 -5 1015.6 997.0 0.7 26
06 16.04 С 7-12
{12}
50 км в посл. час ливневой снег 8/8 600 м
[Cb cap Ac trans]
+2.2 -3.5 66 -4 -3 1016.7 998.1 +0.4
09 16.04 С 7-11
{15}
10 км слаб. ливневой снег 9/9 600 м
[Cb cap]
+0.4 -7.3 56 -6 -6 1021.7 1002.9
12 16.04 С 8-13
{15}
50 км {ливн. осадки} 6/6 600 м
[Cu hum]
-0.0 -13.7 35 -6 -6 1025.4 1006.5
15 16.04 С 6-10
{14}
50 км 1/1 600 м
[Cu hum]
-2.5 -17.4 31 -9 -9 1029.4 1010.2 +2.6 0.0
18 16.04 С 3
{12}
20 км ясно -4.7 -18.0 34 -9 -9 1032.3 1012.9
21 16.04 С 4 20 км ясно -6.5 -17.9 40 -12 -12 1034.1 1014.6
00 17.04 С 2 20 км ясно -9.2 -17.1 53 -13 -13 1035.8 1016.0
03 17.04 С 2 50 км 4/0
[Ci fib]
-9.4 -16.7 55 -14 -13 1037.0 1017.2 -10.2 26
06 17.04 СЗ 1 50 км 4/0
[Cs]
-4.7 -18.7 33 -6 +1 1037.0 1017.5
09 17.04 С 2 50 км 3/0
[Cs]
-1.0 -18.3 26 -4 +6 1035.9 1016.7
12 17.04 З 2 50 км 3/0
[Cs]
+2.1 -19.6 18 0 +5 1033.9 1015.0
15 17.04 СЗ 2 50 км 3/0
[Cs]
+1.3 -19.3 20 -1 -0 1031.8 1012.8 +2.6
18 17.04 В 1 20 км 1/0
[As op]
-3.8 -15.1 41 -5 -5 1031.5 1012.2
21 17.04 Ю 1 20 км 6/0
[As op Ci fib]
-5.4 -16.4 42 -7 -7 1030.8 1011.4
00 18.04 Ю 1 20 км 6/0
[Ci fib]
-9.1 -14.8 63 -11 -11 1030.2 1010.6
03 18.04 Ю 1 50 км 8/0
[Cs]
-5.9 -15.5 47 -8 -7 1029.8 1010.4 -10.2 25
06 18.04 Ю 1 50 км 4/0
[Ac trans Cs]
+3.2 -15.6 24 +3 +10 1028.9 1010.2
09 18.04 З 3 50 км 3/0
[Ac trans Ci fib]
+5.6 -13.0 25 +3 +11 опасность
простуды
1028.4 1009.8
12 18.04 СЗ 3 50 км 4/3 600 м
[Cu hum Ac lent Ci fib]
+6.3 -11.6 26 +4 +7 1028.1 1009.6
15 18.04 С 2 50 км 4/0
[Ac trans Ci fib]
+5.4 -10.4 31 +4 +4 1027.9 1009.3 +6.6
18 18.04 С 1 20 км 6/0
[Ac As]
+1.4 -10.7 40 +1 +1 1028.6 1009.7
21 18.04 штиль 0 20 км 9/0
[Ac As]
+0.6 -8.6 50 0 0 1028.6 1009.7
00 19.04 штиль 0 20 км 9/0
[Ac As]
+0.6 -7.2 56 0 0 1028.5 1009.6
03 19.04 З 1 20 км 9/0
[Ac As]
+1.0 -5.7 61 -0 0 1027.9 1009.0 -0.3 23
06 19.04 С 4 50 км 9/8 600 м
[Sc Ac trans]
+2.8 -4.9 57 -1 -1 1027.5 1008.7
09 19.04 СЗ 2 50 км в посл. час дождь 10/10 600 м
[Sc]
+3.2 -4.6 57 +1 +1 1027.1 1008.4
12 19.04 СЗ 2 20 км {снег, дождь} 10/10 600 м
[Sc]
+3.4 -4.8 55 +1 +1 1026.3 1007.6
15 19.04 С 1 20 км 9/9 600 м
[Sc]
+3.1 -4.9 56 +2 +2 1025.4 1006.7 +3.5 0.0
18 19.04 Ю 1 20 км 9/9 600 м
[Sc]
+1.3 -4.7 64 -0 -0 1025.2 1006.4
21 19.04 штиль 0 20 км 9/8 600 м
[Sc Ac As]
-0.2 -4.1 75 -1 -1 1025.0 1006.1
00 20.04 Ю 1 20 км 8/0
[Ac As]
-1.1 -4.1 80 -3 -3 1025.2 1006.2
03 20.04 Ю 2 20 км 8/3 600 м
[Sc Ac As]
-0.2 -3.6 78 -4 -3 1025.5 1006.2 -1.2 20
06 20.04 С 1 50 км 8/8 600 м
[Cu Sc]
+4.0 -4.3 55 +3 +5 1026.0 1007.4
09 20.04 З 1 50 км 8/8 600 м
[Cu Sc]
+6.7 -6.9 37 +7 +9 1026.3 1007.8
12 20.04 З 1 50 км 3/1 600 м
[Cu hum Ci fib]
+9.4 -7.4 30 +10 +15 1025.8 1007.5
15 20.04 СВ 2 50 км 3/0
[Cs]
+7.5 -6.8 35 +6 +7 1025.5 1007.1 +9.5
18 20.04 ЮВ 1 20 км 1/0
[Ci fib]
+1.9 -5.9 56 +1 +1 1026.5 1007.7
21 20.04 Ю 1 20 км 4/0
[Ci fib]
-1.9 -6.1 73 -4 -4 1027.0 1007.9
00 21.04 штиль 0 20 км 5/0
[Cs]
-3.2 -6.3 79 -4 -4 1026.6 1007.5
03 21.04 Ю 1 20 км 6/0
[Cs]
-0.5 -6.1 66 -2 -1 1026.7 1007.7 -4.3 19
06 21.04 З 2 50 км 4/0
[Ci fib]
+8.9 -6.2 34 +8 +14 1025.9 1007.6

 

Местоположение метеостанции Объячево (Коми, Россия): широта 60.37 долгота 49.65 высота над уровнем моря 152 м.

В архиве по умолчанию представлена погода в Объячеве за последнюю неделю. Архивные данные за месяц целиком и за предыдущие месяцы, начиная с января 2011 года, Вы можете получить, выбрав интересующий диапазон дат из раскрывающегося списка и нажав кнопку "Ввод!".


*Определитесь, кто Вы:
робот инопланетянин человек

Внимание! Время в таблицах - всемирное. Для получения местного времени необходимо прибавить поправку, которая равна 3 ч.

Смотрите также архив погоды в соседних городах и на ближайших метеорологических станциях:

Погода в Койгородке (Коми, Россия) (73 км)
Погода в Пустоши (Коми, Россия) (90 км)
Погода в Опарино (Кировская область, Россия) (95 км)
Погода в Лальске (Кировская область, Россия) (118 км)
Погода в Вилегодском (Архангельская область, Россия) (124 км)
Погода в Нагорске (Кировская область, Россия) (134 км)
Погода в Сыктывкаре (Коми, Россия) (158 км)
Погода в Усть-Черной (Пермский край, Россия) (164 км)
Погода в Слободчиково (Архангельская область, Россия) (171 км)
Погода в Белой Холунице (Кировская область, Россия) (184 км)

Пояснения к столбцам:

Ветер - указаны скорость ветра в м/с - средняя за 10 мин, порывы в срок и между сроками (в фигурных скобках) и направление, откуда дует ветер: С - северный, СВ - северо-восточный, В - восточный, ЮВ - юго-восточный, Ю - южный, ЮЗ - юго-западный, З - западный, СЗ - северо-западный.
Видимость - горизонтальная дальность видимости в метрах или километрах. При видимости от 1 до 10 км при отсутствии осадков обычно наблюдается дымка, при ухудшении видимости до 1 км и менее - туман. В сухую погоду видимость может ухудшаться дымом, пылью или мглою.
Явления - указаны атмосферные явления, наблюдавшиеся в срок или в последний час перед сроком; фигурными скобками обозначены явления, наблюдавшиеся между сроками (за 1-3 часа до срока); квадратными скобками обозначены град или гололедные отложения с указанием их диаметра в мм.
Облачность - указаны через наклонную черту общая и нижняя облачность в баллах и высота нижней границы облаков в метрах; квадратными скобками обозначены формы облаков: Ci - перистые, Cs - перисто-слоистые, Cc - перисто-кучевые, Ac - высококучевые, As - высокослоистые, Sc - слоисто-кучевые, Ns - слоисто-дождевые, Cu - кучевые, Cb - кучево-дождевые. Подробнее классификацию облаков см. в Атласе облаков (PDF).
T - Температура воздуха - температура, измеренная на высоте 2 м над землей.
Td - Температура точки росы - температура, при понижении до которой содержащийся в воздухе водяной пар достигнет насыщения.
f - Относительная влажность воздуха - влажноcть воздуха, измеренная на высоте 2 м над землей.
Te - Эффективная температура - температура, которую ощущает одетый по сезону человек в тени. Характеристика душности погоды. При расчете учитывается влияние влажности воздуха и скорости ветра на теплоощущения человека.
Tes - Эффективная температура на солнце - температура, которую ощущает человек, с поправкой на солнечный нагрев. Характеристика знойности погоды. Зависит от высоты солнца над горизонтом, облачности и скорости ветра. Ночью, в пасмурную погоду, а также при ветре 12 м/с и более поправка равна нулю.
P - Атмосферное давление - приведенное к уровню моря атмосферное давление.
Po - Атмосферное давление - измеренное на уровне метеостанции атмосферное давление.
Tmin - Минимальная температура - минимум температуры воздуха на высоте 2 м над землей.
Tmax - Максимальная температура - максимум температуры воздуха на высоте 2 м над землей.
R - Количество осадков - Количество выпавших осадков за период времени, мм. При наведении курсора мыши на число - период времени, за который выпало указанное количество осадков.
R24 - Количество осадков - Количество выпавших осадков за 24 часа, мм.
S - Снежный покров - Высота снежного покрова, см. При наведении курсора мыши на число - состояние снежного покрова и степень покрытия местности в баллах.